01.11.2023;11:59;2,03
01.11.2023;11:29;2,03
01.11.2023;10:59;2,03
01.11.2023;10:44;2,03
01.11.2023;10:29;2,03
01.11.2023;10:14;2,04
01.11.2023;09:59;2,04
01.11.2023;09:44;2,04
01.11.2023;09:29;2,04
01.11.2023;09:14;2,04
01.11.2023;08:59;2,04
01.11.2023;08:44;2,04
01.11.2023;08:29;2,04
01.11.2023;08:14;2,05
01.11.2023;07:59;2,05
01.11.2023;07:44;2,05
01.11.2023;07:29;2,05
01.11.2023;07:14;2,05
01.11.2023;06:59;2,05
01.11.2023;06:44;2,06
01.11.2023;06:29;2,06
01.11.2023;06:14;2,06
01.11.2023;05:59;2,06
01.11.2023;05:44;2,06
01.11.2023;05:14;2,06
01.11.2023;04:59;2,07
01.11.2023;04:44;2,06
01.11.2023;04:29;2,07
01.11.2023;04:14;2,07
01.11.2023;03:59;2,07
01.11.2023;03:29;2,08
01.11.2023;03:14;2,08
01.11.2023;02:44;2,08
01.11.2023;02:29;2,07
01.11.2023;02:14;2,07
01.11.2023;01:59;2,08
01.11.2023;01:44;2,08
01.11.2023;01:29;2,08
01.11.2023;00:59;2,08
01.11.2023;00:44;2,08
01.11.2023;00:29;2,08
01.11.2023;00:14;2,08
31.10.2023;23:59;2,08
31.10.2023;23:44;2,08
31.10.2023;23:29;2,08
31.10.2023;23:14;2,09
31.10.2023;22:59;2,09
31.10.2023;22:44;2,08
31.10.2023;22:29;2,09
31.10.2023;22:14;2,09
31.10.2023;21:59;2,09
31.10.2023;21:44;2,09
31.10.2023;21:29;2,09
31.10.2023;21:14;2,10
31.10.2023;20:59;2,10
31.10.2023;20:44;2,10
31.10.2023;20:29;2,10
31.10.2023;20:14;2,10
31.10.2023;19:59;2,10
31.10.2023;19:44;2,10
31.10.2023;19:29;2,10
31.10.2023;19:14;2,10
31.10.2023;18:59;2,10
31.10.2023;18:44;2,10
31.10.2023;18:29;2,10
31.10.2023;18:14;2,10
31.10.2023;17:59;2,10
31.10.2023;17:44;2,10
31.10.2023;17:29;2,10
31.10.2023;17:14;2,10
31.10.2023;16:59;2,10
31.10.2023;16:44;2,10
31.10.2023;16:29;2,10
31.10.2023;15:44;2,11
31.10.2023;15:14;2,11
31.10.2023;14:59;2,11
31.10.2023;14:44;2,11
31.10.2023;14:29;2,11
31.10.2023;14:14;2,10
31.10.2023;13:59;2,11
31.10.2023;13:44;2,11
31.10.2023;13:29;2,11
31.10.2023;13:14;2,11
31.10.2023;12:59;2,11
31.10.2023;12:44;2,11
31.10.2023;12:29;2,10
31.10.2023;12:14;2,11
31.10.2023;11:59;2,10
31.10.2023;11:44;2,10
31.10.2023;11:29;2,09
31.10.2023;11:14;2,09
31.10.2023;10:59;2,09
31.10.2023;10:44;2,09
31.10.2023;10:29;2,09
31.10.2023;10:14;2,09
31.10.2023;09:59;2,09
31.10.2023;09:44;2,09
31.10.2023;09:29;2,09
31.10.2023;09:14;2,09
31.10.2023;08:59;2,09
31.10.2023;08:44;2,09
31.10.2023;08:29;2,09
31.10.2023;08:14;2,09
31.10.2023;07:59;2,09
31.10.2023;07:44;2,09
31.10.2023;07:29;2,08
31.10.2023;07:14;2,09
31.10.2023;06:59;2,09
31.10.2023;06:44;2,08
31.10.2023;06:29;2,09
31.10.2023;06:14;2,08
31.10.2023;05:59;2,08
31.10.2023;05:44;2,08
31.10.2023;05:29;2,09
31.10.2023;05:14;2,09
31.10.2023;04:59;2,08
31.10.2023;04:44;2,09
31.10.2023;04:29;2,09
31.10.2023;04:14;2,09
31.10.2023;03:59;2,09
31.10.2023;03:44;2,09
31.10.2023;03:29;2,09
31.10.2023;03:14;2,09
31.10.2023;02:59;2,09
31.10.2023;02:44;2,09
31.10.2023;02:29;2,08
31.10.2023;02:14;2,09
31.10.2023;01:59;2,08
31.10.2023;01:44;2,08
31.10.2023;01:29;2,08
31.10.2023;01:14;2,08
31.10.2023;00:59;2,08
31.10.2023;00:44;2,08
31.10.2023;00:29;2,08
31.10.2023;00:14;2,08
30.10.2023;23:59;2,09
30.10.2023;23:44;2,09
30.10.2023;23:29;2,10
30.10.2023;23:14;2,08
30.10.2023;22:59;2,08
30.10.2023;22:44;2,08
30.10.2023;22:29;2,09
30.10.2023;22:14;2,09
30.10.2023;21:59;2,09
30.10.2023;21:44;2,09
30.10.2023;21:29;2,09
30.10.2023;21:14;2,10
30.10.2023;20:59;2,10
30.10.2023;20:44;2,10
30.10.2023;20:14;2,10
30.10.2023;19:59;2,11
30.10.2023;19:44;2,11
30.10.2023;19:29;2,11
30.10.2023;19:14;2,11
30.10.2023;18:59;2,12
30.10.2023;18:44;2,11
30.10.2023;18:29;2,12
30.10.2023;18:14;2,12
30.10.2023;17:59;2,12
30.10.2023;17:44;2,13
30.10.2023;17:29;2,13
30.10.2023;17:14;2,12
30.10.2023;16:59;2,12
30.10.2023;16:44;2,12
30.10.2023;16:29;2,11
30.10.2023;16:14;2,11
30.10.2023;15:59;2,10
30.10.2023;15:44;2,10
30.10.2023;15:29;2,09
30.10.2023;15:14;2,08
30.10.2023;14:59;2,07
30.10.2023;14:44;2,07
30.10.2023;14:29;2,06
30.10.2023;13:59;2,06
30.10.2023;13:44;2,06
30.10.2023;13:29;2,06
30.10.2023;13:14;2,05
30.10.2023;12:59;2,06
30.10.2023;12:44;2,06
30.10.2023;12:29;2,07
30.10.2023;12:14;2,08
30.10.2023;11:59;2,09
30.10.2023;11:44;2,10
30.10.2023;11:29;2,11
30.10.2023;11:14;2,12
30.10.2023;10:59;2,12
30.10.2023;10:44;2,12
30.10.2023;10:29;2,12
30.10.2023;10:15;2,12
30.10.2023;10:00;2,12
30.10.2023;09:45;2,12
30.10.2023;09:30;2,12
30.10.2023;09:15;2,12
30.10.2023;09:00;2,13
30.10.2023;08:45;2,13
30.10.2023;08:30;2,13
30.10.2023;08:15;2,13
30.10.2023;08:00;2,13
30.10.2023;07:45;2,13
30.10.2023;07:30;2,14
30.10.2023;07:15;2,14
30.10.2023;07:00;2,14
30.10.2023;06:45;2,14
30.10.2023;06:30;2,14
30.10.2023;06:15;2,14
30.10.2023;06:00;2,15
30.10.2023;05:45;2,15
30.10.2023;05:30;2,15
30.10.2023;05:15;2,15
30.10.2023;05:00;2,15
30.10.2023;04:45;2,15
30.10.2023;04:30;2,15
30.10.2023;04:15;2,16
30.10.2023;04:00;2,15
30.10.2023;03:45;2,15
30.10.2023;03:30;2,16
30.10.2023;03:15;2,16
30.10.2023;03:00;2,17
30.10.2023;02:45;2,16
30.10.2023;02:30;2,16
30.10.2023;02:15;2,16
30.10.2023;02:00;2,16
30.10.2023;01:45;2,16
30.10.2023;01:15;2,16
30.10.2023;01:00;2,16
30.10.2023;00:45;2,16
30.10.2023;00:30;2,17
30.10.2023;00:15;2,17
30.10.2023;00:00;2,17
29.10.2023;23:45;2,17
29.10.2023;23:30;2,17
29.10.2023;23:15;2,17
29.10.2023;23:00;2,17
29.10.2023;22:45;2,17
29.10.2023;22:30;2,17
29.10.2023;22:15;2,17
29.10.2023;22:00;2,17
29.10.2023;21:45;2,17
29.10.2023;21:30;2,19
29.10.2023;21:15;2,19
29.10.2023;21:00;2,19
29.10.2023;20:45;2,20
29.10.2023;20:00;2,18
29.10.2023;19:45;2,18
29.10.2023;19:30;2,18
29.10.2023;19:15;2,18
29.10.2023;19:00;2,18
29.10.2023;18:45;2,18
29.10.2023;18:30;2,19
29.10.2023;18:15;2,19
29.10.2023;18:00;2,18
29.10.2023;17:45;2,19
29.10.2023;17:30;2,19
29.10.2023;17:15;2,19
29.10.2023;17:00;2,19
29.10.2023;16:45;2,19
29.10.2023;16:30;2,19
29.10.2023;16:15;2,19
29.10.2023;16:00;2,19
29.10.2023;15:45;2,19
29.10.2023;15:30;2,19
29.10.2023;15:15;2,19
29.10.2023;15:00;2,19
29.10.2023;14:45;2,19
29.10.2023;14:30;2,19
29.10.2023;14:00;2,19
29.10.2023;13:45;2,19
29.10.2023;13:30;2,19
29.10.2023;13:15;2,19
29.10.2023;13:00;2,19
29.10.2023;12:45;2,19
29.10.2023;12:30;2,19
29.10.2023;12:15;2,19
29.10.2023;12:00;2,19
29.10.2023;11:45;2,19
29.10.2023;11:30;2,19
29.10.2023;11:15;2,20
29.10.2023;11:00;2,19
29.10.2023;10:45;2,19
29.10.2023;10:30;2,19
29.10.2023;10:15;2,19
29.10.2023;10:00;2,19
29.10.2023;09:45;2,19
29.10.2023;09:30;2,19
29.10.2023;09:15;2,19
29.10.2023;09:00;2,19
29.10.2023;08:45;2,19
29.10.2023;08:15;2,19
29.10.2023;08:00;2,19
29.10.2023;07:45;2,19
29.10.2023;07:30;2,19
29.10.2023;07:15;2,19
29.10.2023;07:00;2,19
29.10.2023;06:45;2,19
29.10.2023;06:30;2,19
29.10.2023;06:15;2,19
29.10.2023;06:00;2,19
29.10.2023;05:45;2,20
29.10.2023;05:30;2,20
29.10.2023;05:15;2,19
29.10.2023;04:45;2,20
29.10.2023;04:30;2,20
29.10.2023;04:15;2,20
29.10.2023;04:00;2,20
29.10.2023;03:45;2,20
29.10.2023;03:30;2,20
29.10.2023;03:15;2,20
29.10.2023;03:00;2,20
29.10.2023;02:45;2,20
29.10.2023;02:30;2,20
29.10.2023;02:15;2,20
29.10.2023;02:00;2,19
29.10.2023;01:45;2,19
29.10.2023;01:30;2,20
29.10.2023;01:15;2,19
29.10.2023;01:00;2,19
29.10.2023;00:45;2,20
29.10.2023;00:30;2,19
29.10.2023;00:15;2,20
29.10.2023;00:00;2,20
28.10.2023;23:45;2,20
28.10.2023;23:30;2,19
28.10.2023;23:15;2,19
28.10.2023;23:00;2,19
28.10.2023;22:45;2,19
28.10.2023;22:30;2,19
28.10.2023;22:15;2,19
28.10.2023;22:00;2,19
28.10.2023;21:45;2,19
28.10.2023;21:30;2,19
28.10.2023;21:15;2,19
28.10.2023;21:00;2,20
28.10.2023;20:45;2,20
28.10.2023;20:30;2,20
28.10.2023;20:15;2,20
28.10.2023;20:00;2,20
28.10.2023;19:45;2,20
28.10.2023;19:30;2,20
28.10.2023;19:15;2,20
28.10.2023;19:00;2,20
28.10.2023;18:45;2,20
28.10.2023;18:30;2,20
28.10.2023;18:15;2,20
28.10.2023;18:00;2,20
28.10.2023;17:45;2,19
28.10.2023;17:30;2,19
28.10.2023;17:15;2,19
28.10.2023;17:00;2,17
28.10.2023;16:45;2,16
28.10.2023;16:30;2,14
28.10.2023;16:15;2,13
28.10.2023;15:45;2,11
28.10.2023;15:30;2,10
28.10.2023;15:15;2,10
28.10.2023;14:45;2,09
28.10.2023;14:30;2,09
28.10.2023;14:15;2,09
28.10.2023;13:45;2,10
28.10.2023;13:30;2,10
28.10.2023;13:15;2,11
28.10.2023;13:00;2,12
28.10.2023;12:45;2,14
28.10.2023;12:30;2,15
28.10.2023;12:15;2,16
28.10.2023;12:00;2,18
28.10.2023;11:45;2,18
28.10.2023;11:30;2,19
28.10.2023;11:15;2,18
28.10.2023;11:00;2,18
28.10.2023;10:45;2,18
28.10.2023;10:30;2,18
28.10.2023;10:15;2,18
28.10.2023;10:00;2,18
28.10.2023;09:45;2,18
28.10.2023;09:30;2,18
28.10.2023;09:15;2,18
28.10.2023;09:00;2,18
28.10.2023;08:45;2,18
28.10.2023;08:30;2,18
28.10.2023;08:15;2,18
28.10.2023;08:00;2,18
28.10.2023;07:45;2,18
28.10.2023;07:30;2,18
28.10.2023;07:15;2,18
28.10.2023;07:00;2,18
28.10.2023;06:45;2,18
28.10.2023;06:30;2,18
28.10.2023;06:15;2,19
28.10.2023;06:00;2,19
28.10.2023;05:45;2,19
28.10.2023;05:30;2,19
28.10.2023;05:15;2,19
28.10.2023;05:00;2,19
28.10.2023;04:45;2,19
28.10.2023;04:30;2,19
28.10.2023;04:15;2,19
28.10.2023;04:00;2,19
28.10.2023;03:45;2,20
28.10.2023;03:30;2,20
28.10.2023;03:15;2,20
28.10.2023;03:00;2,20
28.10.2023;02:45;2,20
28.10.2023;02:30;2,20
28.10.2023;02:15;2,20
28.10.2023;02:00;2,21
28.10.2023;01:45;2,21
28.10.2023;01:15;2,21
28.10.2023;01:00;2,21
28.10.2023;00:45;2,21
28.10.2023;00:30;2,21
28.10.2023;00:15;2,21
28.10.2023;00:00;2,21
27.10.2023;23:45;2,21
27.10.2023;23:30;2,22
27.10.2023;23:15;2,22
27.10.2023;23:00;2,22
27.10.2023;22:45;2,22
27.10.2023;22:30;2,22
27.10.2023;22:15;2,22
27.10.2023;22:00;2,22
27.10.2023;21:45;2,22
27.10.2023;21:30;2,22
27.10.2023;21:15;2,22
27.10.2023;21:00;2,23
27.10.2023;20:45;2,23
27.10.2023;20:30;2,23
27.10.2023;20:15;2,23
27.10.2023;20:00;2,23
27.10.2023;19:45;2,23
27.10.2023;19:30;2,23
27.10.2023;19:15;2,23
27.10.2023;19:00;2,23
27.10.2023;18:45;2,22
27.10.2023;18:30;2,22
27.10.2023;18:15;2,23
27.10.2023;18:00;2,22
27.10.2023;17:30;2,22
27.10.2023;17:15;2,21
27.10.2023;17:00;2,21
27.10.2023;16:45;2,21
27.10.2023;16:30;2,21
27.10.2023;16:00;2,22
27.10.2023;15:45;2,23
27.10.2023;15:30;2,24
27.10.2023;15:15;2,25
27.10.2023;15:00;2,25
27.10.2023;14:45;2,26
27.10.2023;14:30;2,26
27.10.2023;14:15;2,27
27.10.2023;14:00;2,27
27.10.2023;13:45;2,24
27.10.2023;13:30;2,24
27.10.2023;13:15;2,25
27.10.2023;13:00;2,25
27.10.2023;12:45;2,25
27.10.2023;12:30;2,25
27.10.2023;12:15;2,25
27.10.2023;12:00;2,25
27.10.2023;11:45;2,25
27.10.2023;11:30;2,25
27.10.2023;11:15;2,25
27.10.2023;11:00;2,25
27.10.2023;10:45;2,25
27.10.2023;10:30;2,25
27.10.2023;10:15;2,25
27.10.2023;10:00;2,25
27.10.2023;09:45;2,25
27.10.2023;09:30;2,25
27.10.2023;09:15;2,25
27.10.2023;09:00;2,25
27.10.2023;08:45;2,25
27.10.2023;08:30;2,25
27.10.2023;08:15;2,25
27.10.2023;08:00;2,26
27.10.2023;07:45;2,25
27.10.2023;07:30;2,25
27.10.2023;07:15;2,25
27.10.2023;07:00;2,26
27.10.2023;06:45;2,26
27.10.2023;06:30;2,26
27.10.2023;06:15;2,26
27.10.2023;06:00;2,25
27.10.2023;05:45;2,26
27.10.2023;05:30;2,26
27.10.2023;05:15;2,26
27.10.2023;05:00;2,26
27.10.2023;04:45;2,26
27.10.2023;04:30;2,25
27.10.2023;04:15;2,25
27.10.2023;04:00;2,25
27.10.2023;03:45;2,25
27.10.2023;03:30;2,26
27.10.2023;03:15;2,27
27.10.2023;03:00;2,26
27.10.2023;02:45;2,26
27.10.2023;02:30;2,27
27.10.2023;02:15;2,27
27.10.2023;02:00;2,26
27.10.2023;01:45;2,27
27.10.2023;01:30;2,27
27.10.2023;01:15;2,27
27.10.2023;01:00;2,27
27.10.2023;00:45;2,28
27.10.2023;00:30;2,28
27.10.2023;00:15;2,27
27.10.2023;00:00;2,28
26.10.2023;23:45;2,28
26.10.2023;23:30;2,28
26.10.2023;23:15;2,28
26.10.2023;23:00;2,28
26.10.2023;22:45;2,28
26.10.2023;22:30;2,28
26.10.2023;22:00;2,28
26.10.2023;21:45;2,28
26.10.2023;21:30;2,28
26.10.2023;21:15;2,28
26.10.2023;21:00;2,28
26.10.2023;20:45;2,27
26.10.2023;20:30;2,28
26.10.2023;20:15;2,28
26.10.2023;20:00;2,27
26.10.2023;19:45;2,27
26.10.2023;19:30;2,27
26.10.2023;19:15;2,27
26.10.2023;19:00;2,26
26.10.2023;18:45;2,26
26.10.2023;18:30;2,26
26.10.2023;18:15;2,25
26.10.2023;18:00;2,25
26.10.2023;17:45;2,25
26.10.2023;17:30;2,25
26.10.2023;17:15;2,24
26.10.2023;17:00;2,24
26.10.2023;16:46;2,23
26.10.2023;16:31;2,22
26.10.2023;16:16;2,21
26.10.2023;16:01;2,19
26.10.2023;15:46;2,19
26.10.2023;15:31;2,19
26.10.2023;15:16;2,18
26.10.2023;15:01;2,18
26.10.2023;14:46;2,17
26.10.2023;14:31;2,18
26.10.2023;14:16;2,18
26.10.2023;14:01;2,18
26.10.2023;13:46;2,19
26.10.2023;13:31;2,20
26.10.2023;13:16;2,21
26.10.2023;13:01;2,22
26.10.2023;12:46;2,24
26.10.2023;12:31;2,25
26.10.2023;12:16;2,26
26.10.2023;12:01;2,27
26.10.2023;11:46;2,27
26.10.2023;11:31;2,28
26.10.2023;11:16;2,29
26.10.2023;11:01;2,29
26.10.2023;10:46;2,29
26.10.2023;10:31;2,30
26.10.2023;10:01;2,30
26.10.2023;09:46;2,30
26.10.2023;09:31;2,30
26.10.2023;09:16;2,31
26.10.2023;09:01;2,30
26.10.2023;08:46;2,31
26.10.2023;08:31;2,31
26.10.2023;08:16;2,31
26.10.2023;08:01;2,31
26.10.2023;07:46;2,31
26.10.2023;07:31;2,31
26.10.2023;07:16;2,31
26.10.2023;07:01;2,30
26.10.2023;06:46;2,31
26.10.2023;06:31;2,31
26.10.2023;06:16;2,31
26.10.2023;06:01;2,31
26.10.2023;05:46;2,31
26.10.2023;05:31;2,31
26.10.2023;05:16;2,31
26.10.2023;05:01;2,31
26.10.2023;04:46;2,31
26.10.2023;04:31;2,31
26.10.2023;04:16;2,31
26.10.2023;04:01;2,31
26.10.2023;03:46;2,31
26.10.2023;03:31;2,31
26.10.2023;03:16;2,31
26.10.2023;03:01;2,31
26.10.2023;02:46;2,31
26.10.2023;02:31;2,31
26.10.2023;02:16;2,31
26.10.2023;02:01;2,31
26.10.2023;01:46;2,32
26.10.2023;01:31;2,32
26.10.2023;01:16;2,31
26.10.2023;01:01;2,32
26.10.2023;00:46;2,31
26.10.2023;00:31;2,31
26.10.2023;00:16;2,31
26.10.2023;00:01;2,32
25.10.2023;23:46;2,32
25.10.2023;23:31;2,32
25.10.2023;23:16;2,31
25.10.2023;23:01;2,32
25.10.2023;22:46;2,31
25.10.2023;22:31;2,31
25.10.2023;22:16;2,31
25.10.2023;22:01;2,31
25.10.2023;21:46;2,31
25.10.2023;21:31;2,31
25.10.2023;21:16;2,31
25.10.2023;20:31;2,31
25.10.2023;20:16;2,30
25.10.2023;20:01;2,31
25.10.2023;19:46;2,30
25.10.2023;19:31;2,31
25.10.2023;19:16;2,30
25.10.2023;19:01;2,30
25.10.2023;18:46;2,30
25.10.2023;18:31;2,29
25.10.2023;18:16;2,29
25.10.2023;18:01;2,29
25.10.2023;17:46;2,28
25.10.2023;17:31;2,27
25.10.2023;17:16;2,27
25.10.2023;17:01;2,26
25.10.2023;16:46;2,26
25.10.2023;16:31;2,25
25.10.2023;16:16;2,24
25.10.2023;15:46;2,21
25.10.2023;15:31;2,19
25.10.2023;15:16;2,18
25.10.2023;15:01;2,18
25.10.2023;14:46;2,17
25.10.2023;14:31;2,17
25.10.2023;14:16;2,17
25.10.2023;14:01;2,18
25.10.2023;13:46;2,18
25.10.2023;13:31;2,19
25.10.2023;13:16;2,20
25.10.2023;13:01;2,21
25.10.2023;12:46;2,23
25.10.2023;12:31;2,25
25.10.2023;12:16;2,26
25.10.2023;12:01;2,28
25.10.2023;11:46;2,29
25.10.2023;11:31;2,29
25.10.2023;11:16;2,29
25.10.2023;11:01;2,29
25.10.2023;10:46;2,30
25.10.2023;10:31;2,31
25.10.2023;10:16;2,32
25.10.2023;10:01;2,31
25.10.2023;09:46;2,32
25.10.2023;09:31;2,31
25.10.2023;09:16;2,32
25.10.2023;09:01;2,31
25.10.2023;08:46;2,32
25.10.2023;08:31;2,32
25.10.2023;08:16;2,32
25.10.2023;08:01;2,32
25.10.2023;07:46;2,32
25.10.2023;07:31;2,32
25.10.2023;07:16;2,32
25.10.2023;07:01;2,32
25.10.2023;06:46;2,32
25.10.2023;06:31;2,32
25.10.2023;06:16;2,33
25.10.2023;06:01;2,32
25.10.2023;05:46;2,32
25.10.2023;05:31;2,33
25.10.2023;05:16;2,32
25.10.2023;05:01;2,32
25.10.2023;04:46;2,32
25.10.2023;04:31;2,33
25.10.2023;04:16;2,33
25.10.2023;04:01;2,33
25.10.2023;03:46;2,33
25.10.2023;03:31;2,33
25.10.2023;03:16;2,33
25.10.2023;03:01;2,33
25.10.2023;02:46;2,33
25.10.2023;02:31;2,33
25.10.2023;02:16;2,33
25.10.2023;02:01;2,33
25.10.2023;01:46;2,33
25.10.2023;01:31;2,33
25.10.2023;01:16;2,33
25.10.2023;01:01;2,33
25.10.2023;00:46;2,33
25.10.2023;00:31;2,33
25.10.2023;00:16;2,32
25.10.2023;00:01;2,32
24.10.2023;23:46;2,32
24.10.2023;23:31;2,32
24.10.2023;23:16;2,32
24.10.2023;23:01;2,32
24.10.2023;22:46;2,32
24.10.2023;22:31;2,32
24.10.2023;22:16;2,31
24.10.2023;22:01;2,32
24.10.2023;21:46;2,32
24.10.2023;21:31;2,31
24.10.2023;21:16;2,31
24.10.2023;21:01;2,31
24.10.2023;20:46;2,31
24.10.2023;20:31;2,31
24.10.2023;20:16;2,31
24.10.2023;20:01;2,31
24.10.2023;19:46;2,30
24.10.2023;19:31;2,30
24.10.2023;19:16;2,30
24.10.2023;19:01;2,30
24.10.2023;18:46;2,29
24.10.2023;18:31;2,29
24.10.2023;18:16;2,29
24.10.2023;18:01;2,28
24.10.2023;17:46;2,28
24.10.2023;17:31;2,27
24.10.2023;17:16;2,25
24.10.2023;17:01;2,23
24.10.2023;16:46;2,21
24.10.2023;16:31;2,19
24.10.2023;16:16;2,17
24.10.2023;16:01;2,16
24.10.2023;15:46;2,15
24.10.2023;15:31;2,15
24.10.2023;15:16;2,14
24.10.2023;15:01;2,14
24.10.2023;14:46;2,15
24.10.2023;14:31;2,16
24.10.2023;14:16;2,16
24.10.2023;14:01;2,18
24.10.2023;13:46;2,18
24.10.2023;13:31;2,19
24.10.2023;13:16;2,19
24.10.2023;13:01;2,21
24.10.2023;12:46;2,22
24.10.2023;12:31;2,23
24.10.2023;12:16;2,25
24.10.2023;12:01;2,26
24.10.2023;11:46;2,28
24.10.2023;11:31;2,28
24.10.2023;11:16;2,29
24.10.2023;11:01;2,29
24.10.2023;10:46;2,30
24.10.2023;10:31;2,30
24.10.2023;10:16;2,31
24.10.2023;10:01;2,31
24.10.2023;09:46;2,31
24.10.2023;09:31;2,31
24.10.2023;09:16;2,31
24.10.2023;09:01;2,31
24.10.2023;08:46;2,31
24.10.2023;08:31;2,31
24.10.2023;08:16;2,31
24.10.2023;08:01;2,31
24.10.2023;07:46;2,31
24.10.2023;07:31;2,31
24.10.2023;07:16;2,31
24.10.2023;07:01;2,31
24.10.2023;06:46;2,31
24.10.2023;06:16;2,31
24.10.2023;06:01;2,31
24.10.2023;05:46;2,31
24.10.2023;05:31;2,31
24.10.2023;05:16;2,31
24.10.2023;05:01;2,31
24.10.2023;04:46;2,32
24.10.2023;04:31;2,32
24.10.2023;04:16;2,32
24.10.2023;04:01;2,32
24.10.2023;03:46;2,32
24.10.2023;03:31;2,32
24.10.2023;03:16;2,32
24.10.2023;03:01;2,32
24.10.2023;02:46;2,32
24.10.2023;02:31;2,31
24.10.2023;02:16;2,31
24.10.2023;02:01;2,31
24.10.2023;01:46;2,31
24.10.2023;01:31;2,31
24.10.2023;01:01;2,31
24.10.2023;00:46;2,31
24.10.2023;00:31;2,31
24.10.2023;00:16;2,32
24.10.2023;00:01;2,32
23.10.2023;23:46;2,32
23.10.2023;23:31;2,32
23.10.2023;23:16;2,32
23.10.2023;23:01;2,32
23.10.2023;22:46;2,32
23.10.2023;22:31;2,32
23.10.2023;22:16;2,32
23.10.2023;22:01;2,32
23.10.2023;21:31;2,32
23.10.2023;21:16;2,32
23.10.2023;21:01;2,32
23.10.2023;20:46;2,32
23.10.2023;20:31;2,32
23.10.2023;20:16;2,32
23.10.2023;20:01;2,32
23.10.2023;19:46;2,32
23.10.2023;19:31;2,31
23.10.2023;19:16;2,31
23.10.2023;19:01;2,32
23.10.2023;18:46;2,31
23.10.2023;18:31;2,32
23.10.2023;18:16;2,31
23.10.2023;18:01;2,32
23.10.2023;17:46;2,32
23.10.2023;17:31;2,32
23.10.2023;17:16;2,32
23.10.2023;17:01;2,32
23.10.2023;16:46;2,32
23.10.2023;16:31;2,32
23.10.2023;16:16;2,33
23.10.2023;16:01;2,33
23.10.2023;15:46;2,32
23.10.2023;15:31;2,27
18.10.2023;10:45;2,42
18.10.2023;10:30;2,42
18.10.2023;10:15;2,42
18.10.2023;10:00;2,42
18.10.2023;09:45;2,42
18.10.2023;09:30;2,42
18.10.2023;09:15;2,42
18.10.2023;09:00;2,42
18.10.2023;08:45;2,42
18.10.2023;08:30;2,42
18.10.2023;08:15;2,42
18.10.2023;08:00;2,42
18.10.2023;07:45;2,42
18.10.2023;07:30;2,42
18.10.2023;07:15;2,42
18.10.2023;07:00;2,42
18.10.2023;06:45;2,42
18.10.2023;06:30;2,42
18.10.2023;06:15;2,42
18.10.2023;06:00;2,42
18.10.2023;05:45;2,43
18.10.2023;05:30;2,43
18.10.2023;04:45;2,43
18.10.2023;04:30;2,43
18.10.2023;04:15;2,43
18.10.2023;04:00;2,43
18.10.2023;03:45;2,43
18.10.2023;03:30;2,43
18.10.2023;03:15;2,43
18.10.2023;03:00;2,43
18.10.2023;02:45;2,42
18.10.2023;02:30;2,42
18.10.2023;02:15;2,42
18.10.2023;02:00;2,42
18.10.2023;01:45;2,42
18.10.2023;01:30;2,41
18.10.2023;01:15;2,36
14.09.2023;16:33;3,37
14.09.2023;16:18;3,29
14.09.2023;16:03;3,25
14.09.2023;15:48;3,07
14.09.2023;15:33;3,05
14.09.2023;15:18;3,04
14.09.2023;15:03;3,03
08.09.2023;19:04;3,08
03.09.2023;19:12;2,53
